OneWeb SL0240

operational
NORAD ID: 48785 Int'l Des: 2021-045 Owner: ONEWEBN Country: UK Constellation: oneweb
LEOCIRCULARPOLARONEWEB_TYPE

Über OneWeb SL0240

Beschreibung wird geladen...

Live-Position

3D-Globus wird geladen...

Nächste Überflüge

Höhenverlauf

Altitude vs Time

uPlot chart will show altitude changes over time

Zweizeiliger Elementsatz

1 48785U 21045U 26036.75588497 .00000123 00000-0 29312-3 0 9990
2 48785 87.8996 285.4103 0001317 91.7427 268.3854 13.15550939227127
Epoch: 5. Feb. 2026 • Age: 14 hours

Aktueller Status

Höhe 1205.9 km
Geschwindigkeit 7.25 km/s
Subsatellitenpunkt 34.99°N, 147.43°W
Startdatum 28. Mai 2021
Alter 4.6 years
Typ internet

Technische Details

Klassifizierung Payload
Masse 148.00 kg
Trockenmasse 140.00 kg
Gesamtmasse 148.00 kg
Länge 1.30 m
Durchmesser 1.00 m
Spannweite 5.00 m
Form Trapezoid+2 pan
Hersteller ONEWUS
Bus-Typ ARROW
Phasenstatus In Orbit
Besitzer/Staat ONEWEBN/UK

Große Konstellationen

Loading constellations...